Baileyville, IL

6:36 PM CDT on September 29, 2016 (GMT -0500)
Albertus

Weather History for KFEP - June, 2013

Change the Weather History Date:

Wednesday, June 19, 2013

  Actual Average Record
Temperature  
Mean Temperature 65 °F -  
Max Temperature 81 °F 81 °F 94 °F (1987)
Min Temperature 49 °F 57 °F 48 °F (1982)
Growing Degree Days 15 (Base 50)    
Moisture  
Dew Point 53 °F    
Average Humidity 62    
Maximum Humidity 86    
Minimum Humidity 38    
Precipitation  
Precipitation 0.00 in - - ()
Sea Level Pressure  
Sea Level Pressure 30.12 in    
Wind  
Wind Speed 3 mph (East)    
Max Wind Speed 10 mph    
Max Gust Speed 18 mph    
Visibility 10 miles    
Events      
Averages and records for this station are not official NWS values.
T = Trace of Precipitation, MM = Missing Value Source: NWS Daily Summary

Daily Weather History Graph

Daily Weather History Graph

Search for Another Location

Airport or City:

Trip Planner

Search our weather history database for the weather conditions in past years. The results will help you decide how hot, cold, wet, or windy it might be!

Date:

Astronomy

Jun. 19, 2013 Rise Set
Actual Time 5:21 AM CDT 8:37 PM CDT
Civil Twilight 4:46 AM CDT 9:12 PM CDT
Nautical Twilight 4:02 AM CDT 9:57 PM CDT
Astronomical Twilight 3:07 AM CDT 10:52 PM CDT
Moon 4:27 PM CDT (6/19) 2:10 AM CDT (6/19)
Length of Visible Light 16h 25m
Length of Day
15h 16m
Waxing Gibbous, 80% of the Moon is Illuminated
Jun 19
Waxing Gibbous
Jun 23
Full
Jun 29
Last Quarter
Jul 8
New
Jul 15
First Quarter

Hourly Weather History & Observations

Time (CDT) Temp. Heat Index Dew Point Humidity Pressure Visibility Wind Dir Wind Speed Gust Speed Precip Events Conditions
12:15 AM 55.9 °F - 49.3 °F 78% 30.12 in 10.0 mi East 4.6 mph - N/A   Clear
12:35 AM 54.3 °F - 48.9 °F 82% 30.12 in 10.0 mi Calm Calm - N/A   Clear
12:55 AM 54.0 °F - 49.1 °F 84% 30.12 in 10.0 mi Calm Calm - N/A   Clear
1:15 AM 54.0 °F - 48.4 °F 81% 30.12 in 10.0 mi Calm Calm - N/A   Clear
1:35 AM 52.5 °F - 48.2 °F 85% 30.13 in 10.0 mi ENE 3.5 mph - N/A   Clear
1:55 AM 54.0 °F - 48.9 °F 83% 30.12 in 10.0 mi NE 3.5 mph - N/A   Clear
2:15 AM 54.0 °F - 49.1 °F 84% 30.12 in 10.0 mi Calm Calm - N/A   Clear
2:35 AM 54.0 °F - 48.7 °F 82% 30.12 in 10.0 mi NE 3.5 mph - N/A   Clear
2:55 AM 51.6 °F - 47.5 °F 86% 30.12 in 10.0 mi Calm Calm - N/A   Clear
3:15 AM 51.4 °F - 47.1 °F 85% 30.12 in 10.0 mi Calm Calm - N/A   Clear
3:35 AM 54.0 °F - 49.1 °F 84% 30.13 in 10.0 mi Calm Calm - N/A   Clear
3:55 AM 51.1 °F - 47.1 °F 86% 30.13 in 10.0 mi Calm Calm - N/A   Clear
4:15 AM 50.7 °F - 46.2 °F 85% 30.13 in 10.0 mi Calm Calm - N/A   Clear
4:35 AM 51.4 °F - 46.4 °F 83% 30.13 in 10.0 mi Calm Calm - N/A   Clear
4:55 AM 51.4 °F - 46.4 °F 83% 30.13 in 10.0 mi Calm Calm - N/A   Clear
5:15 AM 49.1 °F - 44.8 °F 85% 30.13 in 10.0 mi Calm Calm - N/A   Clear
5:35 AM 52.0 °F - 46.2 °F 81% 30.14 in 10.0 mi Calm Calm - N/A   Clear
5:55 AM 51.4 °F - 46.0 °F 82% 30.14 in 10.0 mi Calm Calm - N/A   Clear
6:15 AM 52.5 °F - 47.7 °F 84% 30.14 in 10.0 mi East 3.5 mph - N/A   Clear
6:35 AM 54.0 °F - 48.9 °F 83% 30.14 in 10.0 mi ENE 3.5 mph - N/A   Clear
6:55 AM 54.1 °F - 48.4 °F 81% 30.15 in 10.0 mi Calm Calm - N/A   Clear
7:15 AM 56.5 °F - 49.1 °F 76% 30.16 in 10.0 mi Calm Calm - N/A   Clear
7:35 AM 59.0 °F - 50.4 °F 73% 30.16 in 10.0 mi ENE 4.6 mph - N/A   Clear
7:55 AM 61.7 °F - 51.1 °F 68% 30.16 in 10.0 mi ENE 8.1 mph - N/A   Clear
8:15 AM 64.0 °F - 51.1 °F 63% 30.16 in 10.0 mi East 8.1 mph - N/A   Clear
8:35 AM 64.2 °F - 51.1 °F 62% 30.16 in 10.0 mi East 6.9 mph - N/A   Clear
8:55 AM 65.5 °F - 51.4 °F 60% 30.17 in 10.0 mi East 8.1 mph - N/A   Clear
9:15 AM 66.7 °F - 52.9 °F 61% 30.16 in 10.0 mi ESE 3.5 mph - N/A   Clear
9:35 AM 67.6 °F - 53.4 °F 60% 30.16 in 10.0 mi East 5.8 mph - N/A   Clear
9:55 AM 69.4 °F - 54.7 °F 59% 30.16 in 10.0 mi East 3.5 mph - N/A   Clear
10:15 AM 71.8 °F - 56.7 °F 59% 30.16 in 10.0 mi NE 3.5 mph - N/A   Clear
10:35 AM 73.4 °F - 58.6 °F 60% 30.15 in 10.0 mi Calm Calm - N/A   Clear
10:55 AM 74.1 °F - 58.5 °F 58% 30.16 in 10.0 mi Calm Calm - N/A   Clear
11:15 AM 74.3 °F - 58.8 °F 58% 30.15 in 10.0 mi SSE 5.8 mph - N/A   Clear
11:35 AM 74.3 °F - 57.7 °F 56% 30.14 in 10.0 mi Calm Calm - N/A   Clear
11:55 AM 74.3 °F - 55.9 °F 53% 30.14 in 10.0 mi SSE 3.5 mph - N/A   Clear
12:15 PM 76.3 °F - 55.9 °F 49% 30.14 in 10.0 mi East 6.9 mph - N/A   Clear
12:35 PM 77.0 °F - 55.6 °F 47% 30.14 in 10.0 mi SSE 5.8 mph - N/A   Clear
12:55 PM 77.5 °F - 54.5 °F 45% 30.14 in 10.0 mi East 5.8 mph - N/A   Clear
1:15 PM 79.3 °F - 56.7 °F 46% 30.13 in 10.0 mi Calm Calm - N/A   Clear
1:35 PM 79.3 °F - 55.9 °F 44% 30.12 in 10.0 mi ENE 5.8 mph - N/A   Clear
1:55 PM 79.3 °F - 55.0 °F 43% 30.12 in 10.0 mi East 4.6 mph - N/A   Clear
2:15 PM 79.3 °F - 54.7 °F 42% 30.11 in 10.0 mi Calm Calm - N/A   Clear
2:35 PM 79.3 °F - 54.9 °F 43% 30.11 in 10.0 mi East 3.5 mph - N/A   Clear
2:55 PM 79.3 °F - 51.4 °F 38% 30.11 in 10.0 mi ENE 4.6 mph - N/A   Clear
3:15 PM 80.1 °F 80.0 °F 53.4 °F 40% 30.10 in 10.0 mi SE 4.6 mph - N/A   Scattered Clouds
3:35 PM 79.5 °F - 52.2 °F 38% 30.10 in 10.0 mi Calm Calm - N/A   Scattered Clouds
3:55 PM 81.9 °F 81.1 °F 54.0 °F 38% 30.10 in 10.0 mi SSE 5.8 mph - N/A   Scattered Clouds
4:15 PM 81.3 °F 80.7 °F 53.6 °F 38% 30.10 in 10.0 mi Calm Calm - N/A   Scattered Clouds
4:35 PM 81.5 °F 80.9 °F 54.1 °F 39% 30.09 in 10.0 mi SSE 5.8 mph - N/A   Scattered Clouds
4:55 PM 80.4 °F 80.3 °F 54.5 °F 41% 30.09 in 10.0 mi East 5.8 mph - N/A   Scattered Clouds
5:15 PM 81.9 °F 81.2 °F 54.9 °F 39% 30.09 in 10.0 mi ESE 6.9 mph - N/A   Mostly Cloudy
5:35 PM 80.1 °F 80.0 °F 53.4 °F 40% 30.08 in 10.0 mi ESE 5.8 mph - N/A   Mostly Cloudy
5:55 PM 81.5 °F 81.1 °F 55.6 °F 41% 30.09 in 10.0 mi SE 4.6 mph - N/A   Mostly Cloudy
6:15 PM 81.0 °F 80.6 °F 54.5 °F 40% 30.09 in 10.0 mi SE 5.8 mph - N/A   Mostly Cloudy
6:35 PM 79.9 °F - 54.5 °F 41% 30.09 in 10.0 mi South 5.8 mph 18.4 mph N/A   Mostly Cloudy
6:55 PM 79.3 °F - 54.1 °F 42% 30.09 in 10.0 mi Calm Calm - N/A   Scattered Clouds
7:15 PM 79.3 °F - 56.3 °F 45% 30.09 in 10.0 mi South 3.5 mph - N/A   Clear
7:35 PM 78.6 °F - 58.5 °F 50% 30.09 in 10.0 mi ENE 4.6 mph - N/A   Clear
7:55 PM 74.5 °F - 57.2 °F 55% 30.09 in 10.0 mi East 4.6 mph - N/A   Clear
8:15 PM 74.3 °F - 56.8 °F 54% 30.09 in 10.0 mi ESE 3.5 mph - N/A   Clear
8:35 PM 74.3 °F - 59.2 °F 59% 30.09 in 10.0 mi ESE 4.6 mph - N/A   Clear
8:55 PM 71.8 °F - 58.3 °F 62% 30.09 in 10.0 mi ESE 3.5 mph - N/A   Clear
9:15 PM 69.3 °F - 58.5 °F 68% 30.09 in 10.0 mi ESE 5.8 mph - N/A   Clear
9:35 PM 66.6 °F - 57.2 °F 72% 30.10 in 10.0 mi East 10.4 mph - N/A   Clear
9:55 PM 67.5 °F - 53.8 °F 61% 30.11 in 10.0 mi East 10.4 mph - N/A   Clear
10:15 PM 67.1 °F - 52.5 °F 59% 30.11 in 10.0 mi East 9.2 mph - N/A   Clear
10:35 PM 66.6 °F - 52.0 °F 59% 30.11 in 10.0 mi East 9.2 mph - N/A   Clear
10:55 PM 66.6 °F - 51.1 °F 57% 30.11 in 10.0 mi ESE 9.2 mph - N/A   Clear
11:15 PM 66.0 °F - 50.5 °F 57% 30.12 in 10.0 mi ESE 5.8 mph - N/A   Clear
11:35 PM 64.0 °F - 50.9 °F 62% 30.13 in 10.0 mi East 3.5 mph - N/A   Clear
11:55 PM 64.0 °F - 50.2 °F 61% 30.13 in 10.0 mi Calm Calm - N/A   Clear